Trinidad, CO

8:14 AM MDT on May 26, 2017 (GMT -0600)
Stokes

Weather History for KTAD - August, 2013

Change the Weather History Date:

Wednesday, August 21, 2013

  Actual Average Record
Temperature  
Mean Temperature 80 °F 71 °F  
Max Temperature 95 °F 86 °F 96 °F (2003)
Min Temperature 64 °F 57 °F 44 °F (1964)
Degree Days  
Heating Degree Days 0 0  
Month to date heating degree days 5 0  
Since 1 June heating degree days 26 42  
Since 1 July heating degree days 5 3  
Cooling Degree Days 15 6  
Month to date cooling degree days 156 151  
Year to date cooling degree days 803  
Since 1 June cooling degree days 740  
Growing Degree Days 30 (Base 50)    
Moisture  
Dew Point 46 °F    
Average Humidity 33    
Maximum Humidity 52    
Minimum Humidity 14    
Precipitation  
Precipitation T in 0.07 in 0.98 in (1958)
Month to date precipitation 1.92  
Year to date precipitation 7.31  
Sea Level Pressure  
Sea Level Pressure 29.87 in    
Wind  
Wind Speed 9 mph (West)    
Max Wind Speed 33 mph    
Max Gust Speed 41 mph    
Visibility 10 miles    
Events      
T = Trace of Precipitation, MM = Missing Value Source: NWS Daily Summary

Daily Weather History Graph

Daily Weather History Graph

Search for Another Location

Airport or City:

Trip Planner

Search our weather history database for the weather conditions in past years. The results will help you decide how hot, cold, wet, or windy it might be!

Date:

Astronomy

Aug. 21, 2013 Rise Set
Actual Time 6:19 AM MDT 7:41 PM MDT
Civil Twilight 5:51 AM MDT 8:08 PM MDT
Nautical Twilight 5:19 AM MDT 8:40 PM MDT
Astronomical Twilight 4:44 AM MDT 9:15 PM MDT
Moon 7:54 PM MDT (8/21) 6:59 AM MDT (8/21)
Length of Visible Light 14h 16m
Length of Day
13h 22m
Full, 99% of the Moon is Illuminated
Aug 21
Full
Aug 28
Last Quarter
Sep 5
New
Sep 12
First Quarter
Sep 19
Full

Hourly Weather History & Observations

Time (MDT) Temp. Dew Point Humidity Pressure Visibility Wind Dir Wind Speed Gust Speed Precip Events Conditions
12:54 AM 72.0 °F 46.0 °F 40% 29.82 in 10.0 mi SW 12.7 mph - N/A   Clear
1:54 AM 68.0 °F 46.9 °F 47% 29.83 in 10.0 mi East 3.5 mph - N/A   Clear
2:54 AM 69.1 °F 46.9 °F 45% 29.83 in 10.0 mi West 4.6 mph - N/A   Clear
3:54 AM 69.1 °F 46.9 °F 45% 29.83 in 10.0 mi West 10.4 mph - N/A   Clear
4:54 AM 69.1 °F 46.9 °F 45% 29.85 in 10.0 mi West 10.4 mph - N/A   Clear
5:54 AM 64.9 °F 46.9 °F 52% 29.88 in 10.0 mi WSW 10.4 mph - N/A   Clear
6:54 AM 64.9 °F 46.9 °F 52% 29.90 in 10.0 mi West 9.2 mph - N/A   Clear
7:54 AM 70.0 °F 50.0 °F 49% 29.91 in 10.0 mi West 9.2 mph - N/A   Clear
8:54 AM 78.1 °F 50.0 °F 37% 29.91 in 10.0 mi WSW 12.7 mph - N/A   Clear
9:54 AM 84.9 °F 48.0 °F 28% 29.89 in 10.0 mi West 11.5 mph - N/A   Clear
10:54 AM 88.0 °F 46.9 °F 24% 29.88 in 10.0 mi NW 6.9 mph - N/A   Clear
11:54 AM 90.0 °F 43.0 °F 19% 29.87 in 10.0 mi Calm Calm - N/A   Clear
12:54 PM 90.0 °F 43.0 °F 19% 29.86 in 10.0 mi Variable 4.6 mph - N/A   Clear
1:54 PM 95.0 °F 39.0 °F 14% 29.84 in 10.0 mi North 9.2 mph - N/A   Clear
2:54 PM 89.1 °F 42.1 °F 19% 29.85 in 10.0 mi SE 4.6 mph - N/A   Partly Cloudy
3:54 PM 93.0 °F 41.0 °F 16% 29.82 in 10.0 mi SE 9.2 mph - N/A   Clear
4:54 PM 91.9 °F 37.9 °F 15% 29.81 in 10.0 mi East 11.5 mph - N/A   Clear
5:54 PM 88.0 °F 42.1 °F 20% 29.83 in 10.0 mi SW 15.0 mph 19.6 mph N/A   Mostly Cloudy
6:54 PM 86.0 °F 42.1 °F 21% 29.84 in 10.0 mi SSW 10.4 mph - N/A   Clear
7:54 PM 78.1 °F 48.9 °F 36% 29.90 in 10.0 mi NW 11.5 mph 21.9 mph N/A   Mostly Cloudy
8:54 PM 75.9 °F 48.0 °F 37% 29.91 in 10.0 mi WNW 10.4 mph - 0.00 in   Mostly Cloudy
9:54 PM 75.0 °F 48.9 °F 40% 29.93 in 10.0 mi WNW 10.4 mph - N/A   Mostly Cloudy
10:54 PM 72.0 °F 46.9 °F 41% 29.93 in 10.0 mi West 5.8 mph - N/A   Clear
11:54 PM 70.0 °F 46.9 °F 44% 29.92 in 10.0 mi WSW 11.5 mph - N/A   Clear